COSMOS 2501 (702K)

Last updated on Tue Sep 16 2025 00:03:19 GMT+0000 (Coordinated Universal Time)

1 40315U 14075A 25258.31464083 .00000005 00000+0 00000+0 0 9994 2 40315 63.6164 199.8858 0021270 210.0171 149.8536 2.13101281 83997
UTC large
Height (km)
Speed (km/s)
/
Latitude / Longitude
Inclination (degrees)
Orbital Period (minutes)
Azimuth
Elevation
Range (km)
Doppler Factor

Next 0 passes for location: London (51.5072 / 0.1276)

Sorry there are no passes over London.